Location: Kellogg
(38.0159°N, 90.0546°W)
Time: 12:36:22
(UTC+00:00)

Transit 2A - Pass Details

Date: 14 September 2024
Orbit: 590 x 960 km, 66.7° (Epoch: 11 October)

Event Time Altitude Azimuth Distance (km) Brightness Sun altitude
Rises 23:26:06 0° 178° (S) 3,326 9.3 7.6°
Reaches altitude 10° 23:28:41 10° 168° (SSE) 2,456 8.5 7.1°
Maximum altitude 23:33:41 32° 107° (ESE) 1,500 7.1 6.1°
Drops below altitude 10° 23:39:01 10° 47° (NE) 2,645 8.4 5.0°
Sets 23:41:53 0° 38° (NE) 3,622 9.1 4.5°
